Location: Unspecified
(58.9933°N, 5.6375°E)
Time: 11:18:32
(UTC+02:00)

Cosmos 2058 - Visible Passes

Search period start: 23 October 2014 00:00
Search period end: 01 November 2014 23:00
Orbit: 571 x 592 km, 82.5° (Epoch: 22 October)

Date Brightness Start Highest point End Pass type
(mag) Time Alt. Az. Time Alt. Az. Time Alt. Az.
23 Oct 3.7 06:21:08 10° S 06:25:14 55° E 06:29:24 10° NNE visible
24 Oct 6.1 04:52:37 10° ESE 04:54:29 13° ENE 04:56:21 10° NE visible
24 Oct 3.2 06:26:37 10° S 06:30:47 71° E 06:35:02 10° NNE visible
25 Oct 5.9 04:57:18 10° ESE 04:59:53 16° E 05:02:29 10° NE visible
25 Oct 2.9 06:32:09 10° SSW 06:36:22 90° WNW 06:40:39 10° NNE visible
26 Oct 5.5 04:02:13 10° SE 04:05:18 20° E 04:08:25 10° NE visible
26 Oct 2.8 05:37:45 10° SSW 05:41:57 71° WNW 05:46:13 10° N visible
27 Oct 5.1 04:07:17 10° SE 04:10:44 25° E 04:14:13 10° NNE visible
27 Oct 3.0 05:43:25 10° SSW 05:47:34 55° WNW 05:51:46 10° N visible
28 Oct 4.7 04:13:36 17° SE 04:16:11 31° E 04:19:57 10° NNE visible
28 Oct 3.3 05:50:03 16° SW 05:53:11 44° WNW 05:57:17 10° N visible
29 Oct 4.2 04:20:12 29° SE 04:21:39 40° E 04:25:38 10° NNE visible
29 Oct 3.6 05:56:37 21° WSW 05:58:49 35° WNW 06:02:46 10° N visible
30 Oct 3.7 04:26:34 47° SE 04:27:07 51° E 04:31:16 10° NNE visible
30 Oct 3.8 06:02:59 23° W 06:04:28 29° WNW 06:08:12 10° N visible
31 Oct 6.0 02:56:23 12° ENE 02:56:23 12° ENE 02:57:58 10° NE visible
31 Oct 3.3 04:32:48 65° E 04:32:48 65° E 04:36:51 10° NNE visible
31 Oct 4.1 06:09:12 22° W 06:10:08 24° WNW 06:13:37 10° N visible
01 Nov 5.9 03:02:30 14° ENE 03:02:30 14° ENE 03:04:08 10° NE visible
01 Nov 3.3 04:38:54 59° NNE 04:38:54 59° NNE 04:42:25 10° NNE visible
01 Nov 4.3 06:15:18 19° WNW 06:15:49 20° NW 06:18:58 10° N visible
